星链-31452 (STARLINK-31452 )

导读 | 星芒AI

STARLINK-31452 是 SpaceX Starlink 项目中的一颗低轨卫星,属于第二代 Starlink 卫星群。该卫星于2023年发射,旨在为全球提供高速互联网服务,特别是在偏远和网络基础设施薄弱的地区。它采用先进通信技术,具备更高的带宽和更低的延迟,有助于提升 Starlink 网络的整体性能和覆盖范围。作为 Starlink 计划的一部分,该卫星支持 SpaceX 扩展其商业和政府通信服务的目标。

基本信息
目录编号:
59527
目录名称:
STARLINK-31452
国际标识:
2024-073S
轨道中心:
EARTH
卫星名称:
星链-31452
卫星全名:
星链-31452 (STARLINK-31452 )
卫星状态:
在轨 (已飞行569 天)
发射日期:
2024-04-17 UTC
国别 :
美国 (US)
星等 :
--
轨道信息
数据来源 国际轨道数据
星历时间: 2025-11-07T07:13:44+0800
14小时前
查看轨道信息
半长轴: 6861.207km
偏心率: 0.0001063
轨道倾角: 43.002°
近地点辐角 283.369°
升交点赤经 291.368°
平近点角 76.704°
近地点: 482.342km
远地点: 483.802km
周期: 94.267分钟
每日圈数: 15.275731
详细信息
固有亮度:
5
最大亮度:
1.5
卫星平台:
Starlink v2.0 mini
覆盖范围:
全球
运营商:
太空探索技术公司
运营商所在国:
美国
制造商(研发单位):
太空探索技术公司
制造商所在国:
美国
使用方式:
暂无
卫星简介
星链(Starlink)计划是由太空探索技术公司(SpaceX)提出的一个巨型低轨卫星互联网星座项目,计划在2019年至2024年间在太空搭建由约1.2万颗卫星组成的“星链”网络,其中1584颗将部署在地球上空550千米处的近地轨道,并从2020年开始工作。该卫星仍在工作。
2D轨道图
3D轨道图
轨道高度分析图
轨道倾角分析图
轨道综合分析图
查看轨道综合分析图